DW5321 Paradera AW current weather conditions

sailwx.info

Wind from 149 at 6 knots gusting 11

Air temperature 27.8° C
Dewpoint 25.8° C

Last reported at 2014-Oct-23 04:46 UTC.
Time now 2014-Oct-23 06:00 UTC

Location: N 12°33' W 070°00'.
View on Google Maps.

See reports from other nearby stations

  
Tides and Currents Weather Stations Pressure Air Temp Water Temp Dewpoint Dewpoint Depression Visibility Wind Speed Wind Dir Waves Ship Positions
date/time (UTC)wind fromknots sea level pressurealtimeterstation pressurevisibilityair tempwater tempwave heightnotes
2014-Oct-23 04:46 149 6 gusting 11 27.8
2014-Oct-23 04:31 097 4 gusting 10 27.8
2014-Oct-23 04:16 064 4 gusting 12 27.8
2014-Oct-23 04:01 136 6 gusting 11 27.8
2014-Oct-23 03:46 081 6 gusting 10 27.8
2014-Oct-23 03:31 105 6 gusting 10 27.8
2014-Oct-23 03:16 078 6 gusting 12 27.8
2014-Oct-23 03:01 098 6 gusting 11 27.8
2014-Oct-23 02:46 113 6 gusting 12 27.8
2014-Oct-23 02:31 115 5 gusting 13 27.8
2014-Oct-23 02:16 056 5 gusting 9 27.8
2014-Oct-23 02:01 113 5 gusting 10 27.8
2014-Oct-23 01:46 078 4 gusting 8 27.8
2014-Oct-23 01:31 068 6 gusting 11 27.8
2014-Oct-23 01:16 103 6 gusting 11 27.8
2014-Oct-23 01:01 103 6 gusting 11 27.8
2014-Oct-23 00:46 096 6 gusting 11 27.8
2014-Oct-23 00:31 086 5 gusting 9 27.8
2014-Oct-23 00:16 077 5 gusting 9 28.3
2014-Oct-23 00:01 058 6 gusting 11 28.3
2014-Oct-22 23:46 070 6 gusting 11 27.8
2014-Oct-22 23:32 061 6 gusting 10 27.8
2014-Oct-22 23:16 086 6 gusting 10 28.3
2014-Oct-22 23:01 071 6 gusting 11 28.3
2014-Oct-22 22:46 060 9 gusting 13 28.3
2014-Oct-22 22:31 082 6 gusting 11 28.3
2014-Oct-22 22:16 066 7 gusting 16 28.3
2014-Oct-22 22:01 069 8 gusting 14 28.9
2014-Oct-22 21:46 101 7 gusting 13 28.9
2014-Oct-22 21:31 091 9 gusting 14 28.9
2014-Oct-22 21:16 091 7 gusting 13 29.4
2014-Oct-22 21:01 101 8 gusting 14 29.4
2014-Oct-22 20:46 079 8 gusting 13 29.4
2014-Oct-22 20:31 105 8 gusting 15 29.4
2014-Oct-22 20:16 079 6 gusting 18 30.0
2014-Oct-22 20:00 082 7 gusting 13 30.0
2014-Oct-22 19:45 090 7 gusting 13 30.0
2014-Oct-22 19:30 111 7 gusting 14 30.0
2014-Oct-22 19:15 105 7 gusting 13 30.6
2014-Oct-22 19:00 083 8 gusting 15 30.6
2014-Oct-22 18:45 079 8 gusting 13 31.1
2014-Oct-22 18:30 049 10 gusting 14 31.1
2014-Oct-22 18:15 099 9 gusting 14 31.1
2014-Oct-22 18:00 053 6 gusting 15 31.1
2014-Oct-22 17:45 096 10 gusting 16 31.1
2014-Oct-22 17:30 135 9 gusting 18 30.6
2014-Oct-22 17:15 104 6 gusting 17 31.1
2014-Oct-22 17:00 081 10 gusting 16 31.1
2014-Oct-22 16:45 099 9 gusting 17 31.7
2014-Oct-22 16:29 124 10 gusting 17 31.1
2014-Oct-22 16:14 104 12 gusting 15 31.1
2014-Oct-22 15:59 102 9 gusting 15 31.1
2014-Oct-22 15:44 077 6 gusting 14 31.1
2014-Oct-22 15:29 127 7 gusting 14 31.1
2014-Oct-22 15:14 077 8 gusting 13 31.1
2014-Oct-22 14:59 103 8 gusting 15 30.6
2014-Oct-22 14:44 065 7 gusting 13 30.6
2014-Oct-22 14:29 096 10 gusting 14 30.0
2014-Oct-22 14:14 135 8 gusting 16 30.6
2014-Oct-22 13:59 071 11 gusting 15 30.0
2014-Oct-22 13:44 107 8 gusting 17 29.4
2014-Oct-22 13:29 101 7 gusting 12 29.4
2014-Oct-22 13:14 105 5 gusting 12 29.4
2014-Oct-22 12:59 094 7 gusting 13 29.4
2014-Oct-22 12:44 115 7 gusting 13 28.9
2014-Oct-22 12:29 112 6 gusting 14 28.9
2014-Oct-22 12:15 105 8 gusting 13 28.9
2014-Oct-22 11:59 103 6 gusting 12 28.9
2014-Oct-22 11:44 071 6 gusting 13 28.3
2014-Oct-22 11:29 077 3 gusting 11 28.3
2014-Oct-22 11:14 104 5 gusting 8 27.8
2014-Oct-22 10:59 100 5 gusting 10 27.2
2014-Oct-22 10:44 101 5 gusting 8 27.2
2014-Oct-22 10:29 094 3 gusting 9 27.2
2014-Oct-22 10:14 117 6 gusting 9 27.2
2014-Oct-22 09:59 110 6 gusting 11 27.2
2014-Oct-22 09:44 124 5 gusting 9 27.2
2014-Oct-22 09:29 077 6 gusting 8 27.2
2014-Oct-22 09:14 101 3 gusting 9 27.2
2014-Oct-22 08:58 112 2 gusting 6 27.2
2014-Oct-22 08:43 104 4 gusting 8 27.2
2014-Oct-22 08:28 096 5 gusting 10 27.2
2014-Oct-22 08:13 060 6 gusting 12 27.2
2014-Oct-22 07:58 098 8 gusting 13 27.2
2014-Oct-22 07:43 132 6 gusting 13 27.2
2014-Oct-22 07:28 084 6 gusting 10 27.2
2014-Oct-22 07:13 137 6 gusting 12 27.2
2014-Oct-22 06:58 114 5 gusting 12 27.2
2014-Oct-22 06:43 096 7 gusting 11 27.2
2014-Oct-22 06:28 100 6 gusting 11 27.2
2014-Oct-22 06:13 105 6 gusting 8 27.2
2014-Oct-22 05:58 108 7 gusting 11 27.8
2014-Oct-22 05:43 108 7 gusting 14 27.8
2014-Oct-22 05:28 082 6 gusting 13 27.8
2014-Oct-22 05:13 103 9 gusting 13 27.8
2014-Oct-22 04:58 089 8 gusting 12 27.8
2014-Oct-22 04:43 106 6 gusting 13 27.8
2014-Oct-22 04:28 078 6 gusting 11 27.8
2014-Oct-22 04:13 056 6 gusting 11 27.8
2014-Oct-22 03:58 111 6 gusting 13 27.8
2014-Oct-22 03:43 093 6 gusting 12 27.8
2014-Oct-22 03:28 088 4 gusting 10 27.8
2014-Oct-22 03:13 103 6 gusting 12 27.8
2014-Oct-22 02:58 051 5 gusting 10 27.8
2014-Oct-22 02:43 103 6 gusting 10 27.8
2014-Oct-22 02:28 073 6 gusting 13 27.8
2014-Oct-22 02:13 117 6 gusting 11 27.8
2014-Oct-22 01:58 073 6 gusting 10 27.8
2014-Oct-22 01:43 060 6 gusting 12 27.8
2014-Oct-22 01:28 089 6 gusting 13 27.8
2014-Oct-22 01:13 076 6 gusting 10 27.8
2014-Oct-22 00:58 079 6 gusting 12 27.8
2014-Oct-22 00:43 072 5 gusting 10 27.8
2014-Oct-22 00:28 104 7 gusting 10 27.8
2014-Oct-22 00:13 060 6 gusting 11 27.8
2014-Oct-21 23:58 063 6 gusting 10 27.8
2014-Oct-21 23:43 086 6 gusting 11 27.8
2014-Oct-21 23:29 056 6 gusting 11 27.8
2014-Oct-21 23:13 060 6 gusting 11 27.8
2014-Oct-21 22:58 066 6 gusting 12 27.8
2014-Oct-21 22:43 085 6 gusting 13 27.8
2014-Oct-21 22:28 079 6 gusting 10 28.3
2014-Oct-21 22:13 072 6 gusting 14 28.3
2014-Oct-21 21:58 051 8 gusting 14 28.9
2014-Oct-21 21:43 064 7 gusting 15 28.9
2014-Oct-21 21:28 117 8 gusting 14 28.9
2014-Oct-21 21:12 105 6 gusting 12 28.9
2014-Oct-21 20:57 098 5 gusting 12 28.9
2014-Oct-21 20:27 108 7 gusting 13 29.4
2014-Oct-21 20:12 079 7 gusting 13 29.4
2014-Oct-21 19:57 077 6 gusting 14 29.4
2014-Oct-21 19:42 099 9 gusting 13 29.4
2014-Oct-21 19:27 103 6 gusting 14 29.4
2014-Oct-21 19:12 077 6 gusting 13 30.0
2014-Oct-21 18:57 098 8 gusting 15 30.0
2014-Oct-21 18:42 104 7 gusting 13 30.0
2014-Oct-21 18:27 068 7 gusting 13 30.0
2014-Oct-21 18:12 081 7 gusting 12 30.0
2014-Oct-21 17:57 101 7 gusting 13 29.4
2014-Oct-21 17:42 108 6 gusting 14 30.0
2014-Oct-21 17:27 101 7 gusting 13 30.0
2014-Oct-21 17:12 098 10 gusting 18 30.6
2014-Oct-21 16:57 059 9 gusting 13 31.1
2014-Oct-21 16:42 103 6 gusting 14 31.1
2014-Oct-21 16:28 104 9 gusting 16 31.1
2014-Oct-21 16:13 081 9 gusting 13 30.6
2014-Oct-21 15:58 105 6 gusting 13 30.0
2014-Oct-21 15:43 107 9 gusting 16 30.6
2014-Oct-21 15:27 096 7 gusting 14 30.0
2014-Oct-21 15:12 120 9 gusting 15 30.0
2014-Oct-21 14:57 117 9 gusting 15 30.6
2014-Oct-21 14:27 117 9 gusting 15 30.0
2014-Oct-21 14:12 072 8 gusting 15 30.0
2014-Oct-21 13:57 104 9 gusting 16 29.4
2014-Oct-21 13:27 108 9 gusting 15 29.4
2014-Oct-21 13:12 108 9 gusting 17 28.9
2014-Oct-21 12:57 099 6 gusting 13 28.9
2014-Oct-21 12:42 101 6 gusting 12 28.3
2014-Oct-21 12:27 129 5 gusting 11 28.3
2014-Oct-21 12:12 139 5 gusting 11 28.3
2014-Oct-21 11:57 104 5 gusting 11 27.8
2014-Oct-21 11:42 113 5 gusting 11 27.8
2014-Oct-21 11:27 108 7 gusting 12 27.8
2014-Oct-21 11:12 095 6 gusting 9 27.8
2014-Oct-21 10:57 084 4 gusting 8 27.2
2014-Oct-21 10:42 096 2 gusting 6 27.2
2014-Oct-21 10:27 054 1 gusting 6 27.2
2014-Oct-21 10:12 100 1 gusting 6 27.2
2014-Oct-21 09:57 097 2 gusting 6 27.2
2014-Oct-21 09:42 089 1 gusting 6 27.2
2014-Oct-21 09:27 110 3 gusting 5 27.2
2014-Oct-21 09:12 084 4 gusting 8 27.2
2014-Oct-21 08:57 106 4 gusting 8 27.2
2014-Oct-21 08:42 082 2 gusting 7 27.2
2014-Oct-21 08:27 057 3 gusting 8 27.2
2014-Oct-21 08:12 098 6 gusting 9 27.2
2014-Oct-21 07:57 105 4 gusting 7 27.2
2014-Oct-21 07:42 079 2 gusting 8 27.2
2014-Oct-21 07:27 115 3 gusting 6 27.2
2014-Oct-21 07:12 077 4 gusting 8 27.2
2014-Oct-21 06:57 098 4 gusting 11 27.2
2014-Oct-21 06:42 068 2 gusting 6 27.2
2014-Oct-21 06:26 071 3 gusting 9 27.2
2014-Oct-21 06:11 101 4 gusting 8 27.2